User: anonymous   Login
Location: Unspecified
(0.0000°N, 0.0000°E)
Time: 06:48:48
(UTC+02:00)
Language:

Centaur AC-64 - Orbit

View from above orbital plane
View from above orbital plane
View from above satellite
View from above satellite

Ground track
Ground track

The orbit data is extracted from the following two-line orbital elements,

1 15874U 85055B   15181.37110370  .00000987  00000-0  49749-3 0  9996
2 15874 023.0724 142.4063 6583459 201.0821 341.2439 03.16351090307609
Epoch (UTC): 30 June 2015 08:54:23
Eccentricity: 0.6583459
inclination: 23.0724°
perigee height: 319 km
apogee height: 26127 km
right ascension of ascending node: 142.4063°
argument of perigee: 201.0821°
revolutions per day: 3.16351090
mean anomaly at epoch: 341.2439°
orbit number at epoch: 30760

The dashed part of the orbit path shows where the satellite is in the earth's shadow,  

DLR